FW8353 Weather Reports


Display with metric or nautical units.
time (UTC)temp
F
wind
direction
speed
MPH
gust
MPH
rain 1hr
in
rain 24hr
in
rain mn
in
humidity
%
barometer
mb
20260906011543 84 229 0.0 0.0 0.00 0.00 0.00 69 1011.9
20260906010049 84 229 0.0 0.0 0.00 0.00 0.00 67 1011.7
20260906004544 85 229 0.0 0.0 0.00 0.00 0.00 65 1011.5
20260906003042 86 229 0.0 0.0 0.00 0.00 0.00 62 1011.4
20260906001542 87 229 0.0 0.0 0.00 0.00 0.00 60 1011.5
20260906000053 88 229 0.0 1.0 0.00 0.00 0.00 58 1011.7
20260905234548 89 228 0.0 1.0 0.00 0.00 0.00 55 1011.5
20260905233040 90 6 0.0 1.0 0.00 0.00 0.00 55 1011.6
20260905231539 91 240 0.0 1.0 0.00 0.00 0.00 54 1011.7
20260905230038 92 60 0.0 3.0 0.00 0.00 0.00 53 1011.7
20260905224538 94 15 0.0 4.0 0.00 0.00 0.00 52 1011.7
20260905223037 96 49 0.0 5.0 0.00 0.00 0.00 49 1011.5
20260905221536 99 12 0.0 2.0 0.00 0.00 0.00 46 1011.6
20260905220039 100 271 0.0 5.0 0.00 0.00 0.00 46 1011.4
20260905214535 98 269 0.0 1.0 0.00 0.00 0.00 46 1011.3
20260905213034 98 259 0.0 3.0 0.00 0.00 0.00 45 1011.2
20260905211556 98 269 0.0 6.0 0.00 0.00 0.00 44 1011.4
20260905210035 98 168 0.0 2.0 0.00 0.00 0.00 44 1011.5
20260905204529 100 263 1.0 5.0 0.00 0.00 0.00 41 1011.7
20260905203031 101 232 1.0 8.0 0.00 0.00 0.00 42 1011.7
20260905201533 101 255 1.0 8.0 0.00 0.00 0.00 41 1011.8
20260905200022 100 271 1.0 11.0 0.00 0.00 0.00 42 1011.9
20260905194521 100 221 1.0 10.0 0.00 0.00 0.00 42 1012.2
20260905193019 100 264 0.0 7.0 0.00 0.00 0.00 41 1012.3
20260905191517 99 251 3.0 11.0 0.00 0.00 0.00 42 1012.6
20260905190015 100 278 0.0 8.0 0.00 0.00 0.00 44 1012.6
20260905184514 99 269 4.0 9.0 0.00 0.00 0.00 44 1012.8
20260905183011 98 353 5.0 11.0 0.00 0.00 0.00 45 1013.0
20260905181509 99 70 0.0 6.0 0.00 0.00 0.00 47 1013.3
20260905180008 99 268 1.0 5.0 0.00 0.00 0.00 47 1013.3
20260905174507 99 234 1.0 5.0 0.00 0.00 0.00 47 1013.4
20260905173004 97 250 1.0 6.0 0.00 0.00 0.00 49 1013.5
20260905171501 96 276 1.0 4.0 0.00 0.00 0.00 50 1013.5
20260905170112 96 258 0.0 4.0 0.00 0.00 0.00 51 1013.7
20260905164558 96 113 0.0 4.0 0.00 0.00 0.00 51 1014.0
20260905163055 94 235 1.0 4.0 0.00 0.00 0.00 54 1014.1
20260905161552 93 274 2.0 5.0 0.00 0.00 0.00 56 1014.3
20260905160049 92 242 0.0 5.0 0.00 0.00 0.00 57 1014.2
20260905154548 92 280 0.0 3.0 0.00 0.00 0.00 58 1014.3
20260905153044 90 284 1.0 8.0 0.00 0.00 0.00 60 1014.3
20260905151547 89 216 1.0 6.0 0.00 0.00 0.00 65 1014.3
20260905150037 88 276 1.0 5.0 0.00 0.00 0.00 65 1014.3
20260905144534 87 276 0.0 4.0 0.00 0.00 0.00 67 1014.3
20260905143034 86 248 0.0 5.0 0.00 0.00 0.00 70 1014.3
20260905141530 86 234 1.0 5.0 0.00 0.00 0.00 68 1014.3
20260905140025 84 244 0.0 4.0 0.00 0.00 0.00 72 1014.2
20260905134521 83 236 1.0 4.0 0.00 0.00 0.00 74 1014.2
20260905133018 81 241 0.0 4.0 0.00 0.00 0.00 81 1014.2
20260905131521 79 213 0.0 0.0 0.00 0.00 0.00 85 1014.0
20260905130015 77 213 0.0 0.0 0.00 0.00 0.00 88 1014.1
20260905124522 76 214 0.0 0.0 0.00 0.00 0.00 90 1014.0
20260905123010 0 0.0 0.0 0.00 0.00 0.00 1013.8
20260905121506 0 0.0 0.0 0.00 0.00 0.00 1013.7
20260905120003 0 0.0 0.0 0.00 0.00 0.00 1013.6
20260905114558 0 0.0 0.0 0.00 0.00 0.00 1013.4
20260905113053 0 0.0 0.0 0.00 0.00 0.00 1013.2
20260905111549 0 0.0 0.0 0.00 0.00 0.00 1013.2
20260905110059 0 0.0 0.0 0.00 0.00 0.00 1013.0
20260905104540 0 0.0 0.0 0.00 0.00 0.00 1013.0
20260905103039 0 0.0 0.0 0.00 0.00 0.00 1013.1
20260905101535 0 0.0 0.0 0.00 0.00 0.00 1013.3
20260905100026 0 0.0 0.0 0.00 0.00 0.00 1013.2
20260905094524 77 208 0.0 0.0 0.00 0.00 0.00 86 1013.2
20260905093022 77 213 0.0 0.0 0.00 0.00 0.00 86 1013.2
20260905091521 76 213 0.0 0.0 0.00 0.00 0.00 88 1013.2
20260905090019 77 213 0.0 0.0 0.00 0.00 0.00 88 1013.2
20260905084516 77 213 0.0 0.0 0.00 0.00 0.00 87 1013.2
20260905083020 77 213 0.0 0.0 0.00 0.00 0.00 86 1013.2
20260905081515 77 213 0.0 0.0 0.00 0.00 0.00 86 1013.4
20260905080013 78 213 0.0 0.0 0.00 0.00 0.00 85 1013.4
20260905074518 77 213 0.0 0.0 0.00 0.00 0.00 83 1013.4
20260905073011 77 213 0.0 0.0 0.00 0.00 0.00 84 1013.6
20260905071517 78 213 0.0 0.0 0.00 0.00 0.00 84 1013.6
20260905070007 78 213 0.0 0.0 0.00 0.00 0.00 80 1013.7
20260905064505 78 213 0.0 0.0 0.00 0.00 0.00 81 1013.6
20260905063001 79 213 0.0 0.0 0.00 0.00 0.00 78 1013.7
20260905061609 80 213 0.0 0.0 0.00 0.00 0.00 78 1013.9
20260905060056 81 213 0.0 0.0 0.00 0.00 0.00 75 1013.9
20260905054557 81 213 0.0 0.0 0.00 0.00 0.00 77 1013.9
20260905053052 81 213 0.0 1.0 0.00 0.00 0.00 75 1013.9
20260905051552 82 213 0.0 0.0 0.00 0.00 0.00 76 1013.8
20260905050050 82 213 0.0 0.0 0.00 0.00 0.00 76 1013.7
20260905044546 82 215 0.0 0.0 0.00 0.00 0.00 73 1013.7
20260905043041 83 205 0.0 0.0 0.00 0.00 0.00 72 1013.7
20260905041536 84 205 0.0 1.0 0.00 0.00 0.00 71 1013.6
20260905040036 84 211 0.0 1.0 0.00 0.00 0.00 71 1013.6
20260905034531 83 198 0.0 0.0 0.00 0.00 0.00 71 1013.6
20260905033028 83 200 0.0 0.0 0.00 0.00 0.00 72 1013.6
20260905031519 82 201 0.0 0.0 0.00 0.00 0.00 74 1013.7
20260905030014 81 248 0.0 0.0 0.00 0.00 0.00 78 1013.8
20260905024509 81 248 0.0 0.0 0.00 0.00 0.00 79 1013.9
20260905023010 82 248 0.0 0.0 0.00 0.00 0.00 77 1013.6
20260905021600 82 248 0.0 0.0 0.00 0.00 0.00 77 1013.4
20260905020056 82 248 0.0 0.0 0.00 0.00 0.00 74 1013.2
20260905014554 83 248 0.0 0.0 0.00 0.00 0.00 73 1013.1
20260905013049 84 248 0.0 0.0 0.00 0.00 0.00 68 1012.9